064  
ASUS42 KTBW 181716  
RWRFL  
FLORIDA REGIONAL WEATHER ROUNDUP  
NATIONAL WEATHER SERVICE TAMPA BAY RUSKIN FL  
1200 PM EST WED JAN 18 2017  
 
NOTE: "FAIR" INDICATES FEW OR NO CLOUDS BELOW 12,000 FEET WITH NO  
SIGNIFICANT WEATHER AND/OR S TO VISIBILITY
.  
 
FLZ001>010-012>015-112-114-115-181800-  
PANHANDLE FLORIDA  
 
CITY SKY/WX TMP DP RH WIND PRES REMARKS
 
PENSACOLA PTSUNNY 72 67 84 CALM 30.18F  
PENSACOLA NAS PTSUNNY 75 68 78 E3 30.18F  
MILTON NAS PTSUNNY 76 67 73 VRB5 30.19  
CRESTVIEW PTSUNNY 72 65 78 CALM 30.21F  
DUKE FIELD MOSUNNY 68 68 100 N2 30.18F  
VALPARAISO PTSUNNY 70 70 100 CALM 30.18F  
MARY ESTHER MOSUNNY 73 66 79 S5 30.18F  
TRI COUNTY CLOUDY 69 67 93 CALM 30.21F  
PANAMA CITY PTSUNNY 74 68 81 VRB3 30.18F HAZE  
TYNDALL AFB MOSUNNY 75 65 72 S7 30.19F  
APALACHICOLA CLOUDY 72 67 84 S6 30.20F  
 
STATION/POSITION SKY/WX TEMP WIND PRES WAVE SWELL
 
AIR SEA DIR/SP/G HT/PER HT/PER  
(F) (DEG/KT/KT) (MB) (FT/S) (FT/S)  
30.1N 87.6W 66 66 40/ 6/ 8 1022.2F 2/ 6 2/ 6  
28.8N 86.0W 75 75 1022.2F 3/ 6 2/ 6  
PANAMA CITY BEAC 66 65 140/ 5/ 5 1022.5F  
TOWER C 67 140/ 5/ 5 1022.9F  
28.5N 84.5W 74 73 180/ 8/ 10 1022.0F 2/ 4 2/ 4  
 

 
FLZ011-016>038-118-127-128-134-139-239-181800-  
NORTH FLORIDA  
 
CITY SKY/WX TMP DP RH WIND PRES REMARKS
 
MARIANNA CLOUDY 70 67 90 NW5 30.19F  
TALLAHASSEE PTSUNNY 76 65 68 W9 30.18F  
PERRY PTSUNNY 72 67 84 SW6 30.20F  
CROSS CITY CLOUDY 75 63 64 SW9 30.18F  
LAKE CITY FAIR 73 64 73 W8 30.18F  
GAINESVILLE MOSUNNY 78 57 48 SW14 30.18F  
WILLISTON MOSUNNY 81 63 54 SW12G17 30.19F  
PALATKA FAIR 77 59 53 W10G16 30.18F  
MAYPORT NAS PTSUNNY 74 60 61 W8 30.16F  
JACKSONVILLE PTSUNNY 76 62 62 W14 30.16F  
JAX NAS PTSUNNY 76 59 55 W10 30.17F  
FERNANDINA BEA FAIR 79 63 57 W9 30.15F  
ST AUGUSTINE SUNNY 77 59 53 W8 30.17F  
PALM COAST SUNNY 75 61 60 W9 30.18F  
 
STATION/POSITION SKY/WX TEMP WIND PRES WAVE SWELL
 
AIR SEA DIR/SP/G HT/PER HT/PER  
(F) (DEG/KT/KT) (MB) (FT/S) (FT/S)  
SHELL POINT NOT AVBL  
KEATON BEACH 67 200/ 6/ 7 1022.2F  
CEDAR KEY 66 150/ 4/ 5 1023.6R  
FERNANDINA 72 64 260/ 9/ 11 1022.0F  
30.7N 81.3W 62 N/A 2/ 8  
MAYPORT 72 64 280/ 8/ 10 1021.6F  
31.4N 80.9W 61 60 210/ 10/ 10 1020.3F 2/ 9 2/ 9  
ST AUGUSTINE 76 62 250/ 10/ 13 1022.0F  
 

 
FLZ040-043>046-052-053-057-058-063-144-181800-  
INTERIOR CENTRAL FLORIDA  
 
CITY SKY/WX TMP DP RH WIND PRES REMARKS
 
OCALA MOSUNNY 75 61 60 W10 30.20F  
THE VILLAGES N/A 77 73 88 S7 30.09F  
LEESBURG SUNNY 76 61 59 W9 30.20F  
SANFORD SUNNY 76 61 59 W10 30.18F  
ORLANDO EXEC SUNNY 76 62 62 W8 30.19F  
ORLANDO INTL PTSUNNY 77 61 57 W8 30.19F  
KISSIMMEE SUNNY 76 62 62 W10 30.20F  
WINTER HAVEN MOSUNNY 75 59 57 VRB7 30.21F  
LAKELAND MOSUNNY 75 63 64 W10 30.21F  
BARTOW MOSUNNY 75 59 57 SW7 30.21F  
OKEECHOBEE CLOUDY 75 61 60 SW7 30.19F  
 

 
FLZ041-047-054-059-064-141-147-181800-  
EAST CENTRAL FLORIDA  
 
CITY SKY/WX TMP DP RH WIND PRES REMARKS
 
DAYTONA BEACH MOSUNNY 77 63 61 SW9 30.17F  
DELAND SUNNY 77 63 61 SW7 30.17F  
NEW SMYRNA BEA SUNNY 75 63 64 W10 30.18F  
JFK SPACE CTR MOSUNNY 77 62 60 W10 30.17F  
TITUSVILLE MOSUNNY 77 59 53 W12 30.19F  
CAPE CANAVERAL MOSUNNY 79 63 57 W9 30.16F HAZE  
PATRICK AFB SUNNY 79 60 52 W9 30.17F  
MELBOURNE MOSUNNY 78 59 51 W12 30.18F  
VERO BEACH MOSUNNY 79 60 52 W9 30.18F  
FT PIERCE SUNNY 80 61 52 SW8 30.17F  
STUART MOSUNNY 81 59 47 SW5 30.19F  
 
STATION/POSITION SKY/WX TEMP WIND PRES WAVE SWELL
 
AIR SEA DIR/SP/G HT/PER HT/PER  
(F) (DEG/KT/KT) (MB) (FT/S) (FT/S)  
TRIDENT PIER NOT AVBL  
28.4N 80.5W 71 N/A 2/10  
27.5N 80.2W 76 N/A 2/ 8  
 

 
FLZ050-056-061-142-242-148-248-149-249-151-251-155-255-  
160-260-181800-  
WEST CENTRAL FLORIDA  
 
CITY SKY/WX TMP DP RH WIND PRES REMARKS
 
CRYSTAL RIVER FAIR 77 61 57 W10 30.20F  
INVERNESS FAIR 77 63 61 W3 30.20F  
BROOKSVILLE SUNNY N/A N/A N/A MISG N/A  
CLEARWATER AIR FAIR 75 61 60 CALM 30.19F  
ST PETE CLEARW SUNNY 73 64 73 E6 30.20F  
TAMPA INTL PTSUNNY 75 62 64 S5 30.20F  
TAMPA EXEC SUNNY 81 61 50 SW8 30.21F  
PLANT CITY MOSUNNY 79 63 57 W6 30.22F  
MACDILL AFB SUNNY 80 65 61 SW7 30.20F  
PETER O KNIGHT CLOUDY 79 64 61 S5 30.20F  
ST PETERSBURG SUNNY 70 63 78 SE5 30.19F  
SARASOTA MOSUNNY 75 62 64 SW6 30.19S  
VENICE FAIR 75 64 69 S8 30.20S  
 
STATION/POSITION SKY/WX TEMP WIND PRES WAVE SWELL
 
AIR SEA DIR/SP/G HT/PER HT/PER  
(F) (DEG/KT/KT) (MB) (FT/S) (FT/S)  
27.3N 84.2W 78 N/A 3/ 6  
CLEARWATER BEACH 240/ 2/ 3 N/A  
MIDDLE TAMPA BAY 67 10/ 5/ 7 1023.4F  
VENICE 72 67 220/ 3/ 4 1022.1F  
 

 
FLZ066-069-070-075>078-162-262-165-265-181800-  
SOUTHWEST FLORIDA AND KEYS  
 
CITY SKY/WX TMP DP RH WIND PRES REMARKS
 
PUNTA GORDA PTSUNNY 77 62 59 W6 30.19F  
FT MYERS MOSUNNY 81 62 52 SW7 30.17F  
SOUTHWEST INTL MOSUNNY 79 60 52 SW9 30.17F  
NAPLES MOSUNNY 81 61 50 S8 30.17F  
MARCO ISLAND SUNNY 61 61 100 SE14 30.18F  
MARATHON SUNNY 83 64 52 SE7 30.16F  
KEY WEST NAS MOSUNNY 80 65 59 SE12 30.16F  
KEY WEST INTL MOSUNNY 79 66 64 SE13 30.17F  
 
STATION/POSITION SKY/WX TEMP WIND PRES WAVE SWELL
 
AIR SEA DIR/SP/G HT/PER HT/PER  
(F) (DEG/KT/KT) (MB) (FT/S) (FT/S)  
NAPLES 69 1021.8F  
26.0N 85.6W 75 75 130/ 10/ 12 1022.2F 3/ 6 2/ 6  
DRY TORTUGAS 75 110/ 12/ 13 1021.0F  
SAND KEY 76 140/ 12/ 14 1022.0F  
LONG KEY 76 72 90/ 4/ 5 1022.6F  
 

 
FLZ067-068-071>074-168-172>174-181800-  
SOUTHEAST FLORIDA  
 
CITY SKY/WX TMP DP RH WIND PRES REMARKS
 
W PALM BEACH CLOUDY 79 58 48 S7 30.18F  
BOCA RATON MOSUNNY 79 61 53 S8 30.18F  
FT LAUDER-EXEC MOSUNNY 79 57 46 SE10 30.17F  
FT LAUDERDALE CLOUDY 78 62 57 SE9 30.16F  
POMPANO BEACH MOSUNNY 79 59 50 SE12 30.18F  
PEMBROKE PINES CLOUDY 79 61 53 SE10 30.18F  
OPA LOCKA PTSUNNY 78 63 59 SE8 30.17F  
MIAMI CLOUDY 80 62 54 SW8 30.17F  
WEST KENDALL MOSUNNY 80 61 52 VRB5 30.16F  
HOMESTEAD MOSUNNY 81 65 59 VRB7 30.16F  
 
STATION/POSITION SKY/WX TEMP WIND PRES WAVE SWELL
 
AIR SEA DIR/SP/G HT/PER HT/PER  
(F) (DEG/KT/KT) (MB) (FT/S) (FT/S)  
PORT EVERGLADES 78 150/ 4/ 6 1022.7  
VIRGINIA KEY 74 79 150/ 1/ 3 1022.1F  
LAKE WORTH 75 76 160/ 7/ 10 1021.7F  
FOWEY ROCKS 77 76 180/ 6/ 8 1022.0F  
 

 
 
 
 
CLICK HERE TO GO TO PREVIOUS BULLETINS.

The Nexlab FL Page Main Text Page